Lid_Strength_Index
8 12 13 12 12 10 10 12 13 11 8 10 11 12 11 9 10 10 11 10 10 12 10 4 3 3 3 3 3 3 2 1 1 1 2 2 2 1 1 1 1 1 1 -0
11 13 10 9 10 11 11 12 13 11 10 10 11 12 11 9 10 10 10 10 10 14 6 5 4 3 3 3 3 3 2 2 1 1 1 1 2 1 1 0 0 0 -0 -0
12 11 9 10 11 11 11 13 12 13 10 10 11 13 12 9 8 9 10 10 9 11 9 5 4 4 3 4 3 3 2 2 2 2 2 3 2 2 2 3 2 1 0 1
11 9 10 11 12 11 14 10 10 11 12 16 11 17 14 10 10 9 10 10 10 9 8 5 5 4 4 3 3 3 2 2 2 2 2 3 4 4 3 3 2 2 2 1
12 11 12 13 12 9 12 9 10 11 13 14 13 16 13 11 12 10 10 11 10 10 8 6 5 4 3 3 3 2 2 2 3 4 2 3 5 4 2 3 3 3 2 2
11 7 9 10 9 9 8 10 10 11 14 19 14 15 14 14 11 10 10 11 10 9 8 5 4 4 3 4 3 3 3 3 4 4 4 3 4 4 3 3 4 4 4 4
11 11 9 8 12 9 10 13 19 20 20 21 14 15 14 11 10 9 11 10 10 9 6 5 5 4 4 4 4 4 4 3 4 3 4 2 3 3 2 3 3 4 4 5
16 17 11 9 11 12 12 13 18 23 22 20 13 17 14 10 10 9 10 10 10 10 6 6 5 4 4 4 4 4 3 3 3 3 2 2 2 2 1 3 3 4 4 5
16 16 9 9 9 9 13 15 13 17 16 18 16 14 10 10 11 11 10 10 11 9 6 6 5 4 4 4 4 4 4 5 5 5 5 3 2 2 2 3 4 5 5 4
13 17 11 9 8 8 11 10 17 16 22 22 18 17 15 12 12 11 12 12 8 7 6 5 5 5 5 5 6 6 6 6 6 6 6 5 4 5 5 5 6 5 6 7
11 14 13 10 12 13 13 15 14 15 17 21 21 18 13 13 12 13 10 8 8 7 6 5 5 5 6 6 6 7 7 7 7 7 6 6 6 6 6 6 6 7 8 7
10 13 17 13 10 8 11 13 14 18 19 17 17 17 11 11 10 9 9 8 7 6 6 5 5 5 6 7 7 7 8 7 7 7 7 7 7 6 7 7 8 8 8 8
11 14 18 16 13 11 13 11 12 13 14 18 20 19 10 10 10 9 9 8 7 6 6 6 7 7 8 7 7 7 8 7 8 8 8 8 8 8 9 8 8 7 7 7
9 13 15 18 16 13 14 13 12 13 18 17 18 16 13 11 11 9 9 8 7 6 7 8 8 8 8 7 8 8 8 7 8 8 8 9 9 8 8 7 6 6 6 7
10 15 14 13 13 12 12 13 12 14 14 17 16 15 13 11 10 9 8 7 8 8 8 8 9 9 9 8 8 8 7 8 8 9 9 8 7 7 6 6 6 5 6 6
10 15 14 15 12 12 13 12 13 13 13 14 13 14 10 9 8 9 8 8 9 9 9 8 8 8 8 8 8 8 7 7 7 7 7 7 7 6 7 6 6 6 6 7
12 14 15 18 13 13 16 14 13 12 12 12 16 13 10 10 10 10 10 10 10 10 9 9 9 9 8 9 8 9 8 7 7 7 6 6 6 6 6 6 6 7 7 8
12 13 14 17 14 21 14 10 10 12 11 11 11 10 11 12 10 11 11 11 11 10 11 11 10 10 10 9 9 8 7 8 7 7 7 7 6 7 7 6 6 6 8 9
11 12 15 18 18 15 13 12 12 13 14 10 11 11 11 11 12 12 11 10 10 10 11 11 10 10 9 9 9 8 8 8 7 8 8 7 7 8 7 7 6 5 7 9
12 11 14 16 19 21 14 12 11 12 16 9 10 11 11 9 15 14 11 10 10 10 10 10 10 10 10 10 9 9 9 9 9 9 8 8 8 7 8 7 6 5 6 9
17 17 16 16 17 15 13 13 11 16 15 9 9 9 9 11 12 11 11 11 11 11 11 11 11 11 11 10 9 10 10 10 9 9 9 9 8 8 8 8 7 7 7 8
19 20 19 16 17 19 12 12 13 11 8 8 10 11 11 11 11 11 12 12 12 12 12 12 12 12 12 11 10 10 11 11 10 9 9 10 11 9 9 9 9 9 9 10
19 17 18 17 17 13 13 14 12 11 9 10 10 10 10 11 11 12 12 12 12 13 13 12 13 13 12 12 11 12 12 11 10 10 11 11 11 10 11 11 11 11 12 12
16 15 17 15 14 15 12 10 9 8 10 9 9 10 11 12 12 12 12 13 13 13 13 13 13 14 14 13 12 12 12 11 11 11 11 11 11 12 11 12 12 12 13 14
17 16 18 16 15 14 13 11 10 10 10 10 10 10 11 11 12 12 12 13 12 13 12 12 13 14 14 13 13 13 12 12 13 12 11 11 11 12 12 12 12 13 13 13
15 17 18 19 15 15 15 11 10 11 12 11 11 12 11 11 12 12 12 12 12 12 13 13 13 14 14 13 13 13 12 13 13 13 12 12 12 11 11 12 12 12 12 12